Regional Weather Roundup
Issued by NWS Green Bay, WI

Home | Current Version | Previous Version | Text Only | Print | Product List | Glossary On
Versions: 1 2 3 4 5 6 7 8 9 10 11 12 13 14 15 16 17 18 19 20 21 22 23 24 25 26 27 28 29 30 31 32 33 34 35 36 37 38 39 40 41 42 43 44 45 46 47 48 49 50
000
ASUS43 KGRB 011811
RWRGRB

NORTH-CENTRAL AND NORTHEAST WISCONSIN REGIONAL WEATHER ROUNDUP
NATIONAL WEATHER SERVICE GREEN BAY WI
100 PM CDT TUE SEP 01 2015

WIZ005-009-010>012-018-019-011900-
NORTH CENTRAL WISCONSIN

CITY           SKY/WX    TMP DP  RH WIND       PRES   REMARKS
IRONWOOD       PTSUNNY   79  70  73 SW9       29.89F
MANITOWISH WTR PTSUNNY   80  66  64 SW12G17   29.96S
ARBOR VITAE    PTSUNNY   79  69  69 SW8       29.96S
EAGLE RIVER    PTSUNNY   80  65  59 SW13      29.96S
LAND O LAKES   MOSUNNY   81  65  58 SW10G17   29.97S
RHINELANDER    MOSUNNY   81  68  64 SW10      29.98F
PHILLIPS       PTSUNNY   79  69  70 SW6       29.96S
ANTIGO         PTSUNNY   82  68  63 SW10      29.97F
TOMAHAWK       MOSUNNY   79  68  68 SW5       29.97F
MERRILL        MOSUNNY   82  69  65 W9        29.97F
$$

WIZ013-073-011900-
NORTHEAST WISCONSIN

CITY           SKY/WX    TMP DP  RH WIND       PRES   REMARKS
IRON MOUNTAIN  MOSUNNY   85  69  58 SW8       29.93F
MARINETTE      MOSUNNY   82  72  69 S7        29.93F
OCONTO         MOSUNNY   84  77  78 S7        29.94S HX  94
$$

WIZ017-030-035>037-045-011900-
CENTRAL WISCONSIN

CITY           SKY/WX    TMP DP  RH WIND       PRES   REMARKS
MEDFORD        MOSUNNY   80  69  69 SW12      29.97F
WAUSAU         MOSUNNY   83  68  60 SW9       29.95F
MOSINEE        NOT AVBL
MARSHFIELD     MOSUNNY   85  67  54 SW9       29.96F
WISC RAPIDS    MOSUNNY   86  67  52 SW8       29.97F
STEVENS POINT  MOSUNNY   83  65  54 SW12      29.97S
WAUPACA        MOSUNNY   87  69  53 SW8       29.96F HX  91
SHAWANO        MOSUNNY   87  70  56 S9        29.95F HX  92
CLINTONVILLE   PTSUNNY   86  68  54 SW9       29.94F
WAUTOMA        MOSUNNY   87  70  57 SW9       29.97F HX  92
$$

WIZ038-039-048-051-011900-
FOX VALLEY

CITY           SKY/WX    TMP DP  RH WIND       PRES   REMARKS
NWS GREEN BAY  MOSUNNY   85  74  69 S8        29.96F HX  92
APPLETON       PTSUNNY   84  70  61 S13       29.96F
OSHKOSH        MOSUNNY   85  71  63 SW9       29.97F HX  90
FOND DU LAC    SUNNY     86  73  65 SW8       29.98F HX  93
$$

WIZ022-050-052-011900-
EAST CENTRAL WISCONSIN

CITY           SKY/WX    TMP DP  RH WIND       PRES   REMARKS
EPHRAIM        FAIR      79  69  73 S9        29.95F
STURGEON BAY   SUNNY     82  72  69 S9        29.98F
MANITOWOC      SUNNY     79  71  76 MISG      29.97F
SHEBOYGAN      MOSUNNY   85  70  60 SW13      29.98F
$$

LMZ563-521-522-541>543-011900-
LAKESHORE

STATION/POSITION TIME  TEMP    WIND        PRES    VSBY  WAVE
                       AIR SEA DIR/SP/G                  HT/PER
                 (UTC) (F)     (DEG/KT/KT) (MB)    (MI)  (FT/S)
SHEBOYGAN LKSHOR 1800   66     170/ 22/ 23 1015.2F
KEWAUNEE LKSHORE 1700   54     160/  9/ 11 1014.4F
ALGOMA MARINA    1744             CALM       N/A
NORTHPORT PIER   1700   70     150/  8/ 10 1014.9F
N MID LAKE BUOY  1750   67 65  200/ 10/ 12 1014.5F         1/ 3
S GREEN BAY BUOY 1800   72 66  200/  6/  6 1015.6F
SISTER BAY LKSHO 1719   82     150/ 10/ 12   N/A
CHAMBERS ISLAND  1700   78     180/  5/  9 1014.6F
MENOMINEE LKSHOR 1700   75     180/  7/ 10 1013.4F
$$


USA.gov is the U.S. government's official web portal to all federal, state and local government web resources and services.